When you browse on this site, cookies collect data to enhance your experience and personalize the content and advertising you see.
Visit our Privacy Policy to learn more. By continuing to use the site, you agree to this use of cookies and data.
  • In Romania
  • List of Countries
  • For 7 days
  • Water Temperature
  • Weather Map
  • Weather Widgets
  • user-avatar
    Login

    Hourly Weather Belém

    Today, 18 February, Tuesday

    Time Temperature Precipitation Wind Pressure Humidity
    00:00 +26°C° 0.2 mm 3 mps 758 mmHg 96%
    01:00 +26°C° 1 mm 3 mps 757 mmHg 96%
    02:00 +26°C° 1 mm 3 mps 757 mmHg 96%
    03:00 +26°C° 0 mm 3 mps 756 mmHg 97%
    04:00 +26°C° 1.1 mm 3 mps 756 mmHg 97%
    05:00 +26°C° 1.1 mm 3 mps 756 mmHg 97%
    06:00 +26°C° 1.1 mm 2 mps 756 mmHg 97%
    07:00 +27°C° 0.6 mm 3 mps 757 mmHg 95%
    08:00 +28°C° 0.6 mm 3 mps 757 mmHg 94%
    09:00 +29°C° 0 mm 2 mps 758 mmHg 92%
    10:00 +29°C° 1.5 mm 3 mps 758 mmHg 91%
    11:00 +30°C° 1.5 mm 3 mps 757 mmHg 90%
    12:00 +30°C° 1.5 mm 3 mps 757 mmHg 89%
    13:00 +30°C° 2.1 mm 4 mps 756 mmHg 90%
    14:00 +30°C° 2.1 mm 4 mps 756 mmHg 91%
    15:00 +30°C° 2.1 mm 4 mps 755 mmHg 91%
    16:00 +29°C° 1.5 mm 4 mps 755 mmHg 92%
    17:00 +28°C° 1.5 mm 4 mps 755 mmHg 94%
    18:00 +28°C° 1.5 mm 4 mps 755 mmHg 95%
    19:00 +27°C° 0.7 mm 4 mps 756 mmHg 95%
    20:00 +27°C° 0.7 mm 4 mps 756 mmHg 96%
    21:00 +26°C° 0.7 mm 3 mps 757 mmHg 97%
    22:00 +26°C° 0.4 mm 3 mps 757 mmHg 97%
    23:00 +26°C° 0.4 mm 3 mps 757 mmHg 97%

    Tomorrow, 19 February, Wednesday

    Time Temperature Precipitation Wind Pressure Humidity
    00:00 +26°C° 0.4 mm 3 mps 757 mmHg 97%
    01:00 +26°C° 0.9 mm 3 mps 757 mmHg 97%
    02:00 +26°C° 0.9 mm 3 mps 756 mmHg 97%
    03:00 +26°C° 0.9 mm 3 mps 756 mmHg 97%
    04:00 +26°C° 0.6 mm 3 mps 756 mmHg 97%
    05:00 +26°C° 0.6 mm 3 mps 756 mmHg 97%
    06:00 +26°C° 0.6 mm 3 mps 756 mmHg 97%
    07:00 +26°C° 0.9 mm 3 mps 756 mmHg 96%
    08:00 +27°C° 0.9 mm 3 mps 757 mmHg 95%
    09:00 +27°C° 0.9 mm 3 mps 757 mmHg 95%
    10:00 +28°C° 1.1 mm 3 mps 757 mmHg 94%
    11:00 +28°C° 1.1 mm 3 mps 757 mmHg 93%
    12:00 +29°C° 1.1 mm 4 mps 757 mmHg 92%
    13:00 +28°C° 1.4 mm 4 mps 756 mmHg 93%
    14:00 +28°C° 1.4 mm 4 mps 755 mmHg 93%
    15:00 +28°C° 1.4 mm 4 mps 755 mmHg 94%
    16:00 +27°C° 2.2 mm 4 mps 755 mmHg 95%
    17:00 +27°C° 2.2 mm 3 mps 755 mmHg 96%
    18:00 +26°C° 2.2 mm 3 mps 755 mmHg 97%
    19:00 +26°C° 1 mm 3 mps 756 mmHg 97%
    20:00 +26°C° 1 mm 3 mps 756 mmHg 97%
    21:00 +26°C° 1 mm 3 mps 756 mmHg 97%
    22:00 +26°C° 0.3 mm 3 mps 757 mmHg 97%
    23:00 +26°C° 0.3 mm 2 mps 757 mmHg 97%

    Day after tomorrow, 20 February, Thursday

    Time Temperature Precipitation Wind Pressure Humidity
    00:00 +26°C° 0.3 mm 2 mps 757 mmHg 97%
    01:00 +26°C° 0.2 mm 2 mps 756 mmHg 97%
    02:00 +26°C° 0.2 mm 2 mps 756 mmHg 97%
    03:00 +26°C° 0.2 mm 2 mps 755 mmHg 97%
    04:00 +26°C° 0.3 mm 2 mps 755 mmHg 97%
    05:00 +26°C° 0.3 mm 2 mps 755 mmHg 97%
    06:00 +26°C° 0.3 mm 2 mps 755 mmHg 97%
    07:00 +26°C° 0.4 mm 2 mps 756 mmHg 96%
    08:00 +27°C° 0.4 mm 2 mps 757 mmHg 95%
    09:00 +27°C° 0.4 mm 2 mps 757 mmHg 94%
    10:00 +27°C° 0.7 mm 2 mps 757 mmHg 94%
    11:00 +28°C° 0.7 mm 2 mps 757 mmHg 93%
    12:00 +28°C° 0.7 mm 3 mps 757 mmHg 93%
    13:00 +28°C° 1.1 mm 3 mps 756 mmHg 93%
    14:00 +28°C° 1.1 mm 3 mps 756 mmHg 94%
    15:00 +27°C° 1.1 mm 3 mps 755 mmHg 94%
    16:00 +27°C° 1.1 mm 3 mps 755 mmHg 95%
    17:00 +27°C° 1.1 mm 2 mps 755 mmHg 95%
    18:00 +26°C° 1.1 mm 2 mps 755 mmHg 96%
    19:00 +26°C° 1.5 mm 3 mps 756 mmHg 96%
    20:00 +26°C° 1.5 mm 3 mps 756 mmHg 96%
    21:00 +26°C° 1.5 mm 3 mps 757 mmHg 96%
    22:00 +26°C° 1 mm 2 mps 757 mmHg 96%
    23:00 +26°C° 1 mm 2 mps 757 mmHg 97%

    21 February, Friday

    Time Temperature Precipitation Wind Pressure Humidity
    00:00 +26°C° 1 mm 2 mps 757 mmHg 97%
    01:00 +26°C° 2.1 mm 2 mps 757 mmHg 97%
    02:00 +25°C° 2.1 mm 2 mps 757 mmHg 97%
    03:00 +25°C° 2.1 mm 2 mps 756 mmHg 97%
    10:00 +28°C° 0.4 mm 2 mps 758 mmHg 86%
    11:00 +30°C° 0.4 mm 2 mps 758 mmHg 75%
    12:00 +32°C° 0.4 mm 1 mps 758 mmHg 65%
    13:00 +32°C° 0.3 mm 2 mps 757 mmHg 69%
    14:00 +31°C° 0.3 mm 2 mps 756 mmHg 73%
    15:00 +31°C° 0.3 mm 2 mps 755 mmHg 77%
    16:00 +30°C° 0.5 mm 2 mps 755 mmHg 82%
    17:00 +29°C° 0.5 mm 2 mps 755 mmHg 88%
    18:00 +27°C° 0.5 mm 2 mps 756 mmHg 94%
    19:00 +27°C° 0.1 mm 2 mps 756 mmHg 94%
    20:00 +26°C° 0.1 mm 2 mps 757 mmHg 95%
    21:00 +26°C° 0.1 mm 3 mps 757 mmHg 96%
    22:00 +26°C° 0.1 mm 2 mps 757 mmHg 96%
    23:00 +26°C° 0.1 mm 2 mps 757 mmHg 96%

    22 February, Saturday

    Time Temperature Precipitation Wind Pressure Humidity
    00:00 +26°C° 0.1 mm 2 mps 757 mmHg 96%
    01:00 +25°C° 0 mm 2 mps 757 mmHg 96%
    02:00 +25°C° 0 mm 1 mps 757 mmHg 97%
    03:00 +25°C° 0 mm 1 mps 756 mmHg 97%
    04:00 +25°C° 0 mm 1 mps 756 mmHg 97%
    05:00 +25°C° 0 mm 1 mps 757 mmHg 97%
    06:00 +25°C° 0 mm 1 mps 757 mmHg 97%
    07:00 +26°C° 0.1 mm 1 mps 757 mmHg 94%
    08:00 +27°C° 0.1 mm 1 mps 758 mmHg 91%
    09:00 +28°C° 0.1 mm 1 mps 758 mmHg 88%
    10:00 +29°C° 0.6 mm 2 mps 758 mmHg 88%
    11:00 +29°C° 0.6 mm 2 mps 758 mmHg 87%
    12:00 +30°C° 0.6 mm 2 mps 757 mmHg 87%
    13:00 +30°C° 1.3 mm 2 mps 757 mmHg 88%
    14:00 +29°C° 1.3 mm 3 mps 756 mmHg 90%
    15:00 +29°C° 1.3 mm 3 mps 755 mmHg 91%
    16:00 +29°C° 0.9 mm 3 mps 756 mmHg 93%
    17:00 +28°C° 0.9 mm 3 mps 756 mmHg 94%
    18:00 +28°C° 0.9 mm 3 mps 756 mmHg 95%
    19:00 +27°C° 0.1 mm 3 mps 756 mmHg 95%
    20:00 +27°C° 0.1 mm 3 mps 757 mmHg 96%
    21:00 +26°C° 0.1 mm 3 mps 757 mmHg 96%
    22:00 +26°C° 0 mm 3 mps 757 mmHg 97%
    23:00 +26°C° 0 mm 3 mps 757 mmHg 97%

    23 February, Sunday

    Time Temperature Precipitation Wind Pressure Humidity
    00:00 +26°C° 0 mm 2 mps 758 mmHg 97%
    01:00 +26°C° 0.1 mm 2 mps 757 mmHg 97%
    02:00 +26°C° 0.1 mm 2 mps 757 mmHg 97%
    03:00 +25°C° 0.1 mm 2 mps 756 mmHg 97%
    04:00 +25°C° 0.2 mm 2 mps 756 mmHg 97%
    05:00 +25°C° 0.2 mm 2 mps 757 mmHg 97%
    06:00 +25°C° 0.2 mm 2 mps 757 mmHg 98%
    07:00 +26°C° 0.3 mm 2 mps 757 mmHg 96%
    08:00 +27°C° 0.3 mm 2 mps 758 mmHg 94%
    09:00 +28°C° 0.3 mm 2 mps 758 mmHg 92%
    10:00 +28°C° 0.9 mm 2 mps 758 mmHg 91%
    11:00 +29°C° 0.9 mm 2 mps 758 mmHg 89%
    12:00 +30°C° 0.9 mm 2 mps 758 mmHg 88%
    13:00 +30°C° 1.2 mm 3 mps 757 mmHg 89%
    14:00 +30°C° 1.2 mm 3 mps 756 mmHg 90%
    15:00 +29°C° 1.2 mm 3 mps 756 mmHg 91%
    16:00 +29°C° 0.8 mm 3 mps 756 mmHg 92%
    17:00 +28°C° 0.8 mm 3 mps 756 mmHg 93%
    18:00 +28°C° 0.8 mm 3 mps 756 mmHg 95%
    19:00 +27°C° 0 mm 3 mps 756 mmHg 95%
    20:00 +27°C° 0 mm 3 mps 757 mmHg 96%
    21:00 +26°C° 0 mm 3 mps 757 mmHg 96%
    22:00 +26°C° 0 mm 3 mps 757 mmHg 96%
    23:00 +26°C° 0 mm 2 mps 757 mmHg 96%
    Show more